Siemreap, Cambodia

2:42 AM ICT on February 21, 2018 (GMT +0700)
Siem Reap

Weather History for VDSR - June, 2013

Change the Weather History Date:

Tuesday, June 18, 2013

  Actual Average Record
Temperature  
Mean Temperature 84 °F -  
Max Temperature 89 °F - - ()
Min Temperature 80 °F - - ()
Cooling Degree Days 20    
Growing Degree Days 34 (Base 50)    
Moisture  
Dew Point 76 °F    
Average Humidity 79    
Maximum Humidity 89    
Minimum Humidity 66    
Precipitation  
Precipitation 0.00 in - - ()
Sea Level Pressure  
Sea Level Pressure 29.58 in    
Wind  
Wind Speed 4 mph ()    
Max Wind Speed 21 mph    
Max Gust Speed -    
Visibility 6.0 miles    
Events Rain    
T = Trace of Precipitation, MM = Missing Value Source: Averaged Metar Reports

Daily Weather History Graph

Daily Weather History Graph

Search for Another Location

Airport or City:

Trip Planner

Search our weather history database for the weather conditions in past years. The results will help you decide how hot, cold, wet, or windy it might be!

Date:

Astronomy

Jun. 18, 2013 Rise Set
Actual Time 5:38 AM ICT 6:33 PM ICT
Civil Twilight 5:14 AM ICT 6:56 PM ICT
Nautical Twilight 4:47 AM ICT 7:24 PM ICT
Astronomical Twilight 4:18 AM ICT 7:52 PM ICT
Moon 1:22 PM ICT (6/18) 12:41 AM ICT (6/18)
Length of Visible Light 13h 41m
Length of Day
12h 54m
Waxing Gibbous, 66% of the Moon is Illuminated
Jun 18
Waxing Gibbous
Jun 23
Full
Jun 30
Last Quarter
Jul 8
New
Jul 16
First Quarter

Hourly Weather History & Observations

Time (ICT) Temp. Heat Index Dew Point Humidity Pressure Visibility Wind Dir Wind Speed Gust Speed Precip Events Conditions
12:00 AM 80.6 °F 87.1 °F 77.0 °F 89% 29.62 in 5.6 mi SSW 5.8 mph - N/A   Scattered Clouds
12:30 AM 80.6 °F 86.2 °F 75.2 °F 84% 29.62 in 5.6 mi South 8.1 mph - N/A   Scattered Clouds
1:00 AM 80.6 °F 86.2 °F 75.2 °F 84% 29.59 in 5.6 mi South 6.9 mph - N/A   Scattered Clouds
7:00 AM 80.6 °F 86.2 °F 75.2 °F 84% 29.59 in 6.2 mi ESE 1.2 mph - N/A   Mostly Cloudy
7:30 AM 80.6 °F 86.2 °F 75.2 °F 84% 29.62 in 6.2 mi SSW 3.5 mph - N/A   Mostly Cloudy
8:00 AM 80.6 °F 86.2 °F 75.2 °F 84% 29.62 in 6.2 mi SSW 1.2 mph - N/A   Mostly Cloudy
8:30 AM 82.4 °F 89.5 °F 75.2 °F 79% 29.62 in 6.2 mi SSW 1.2 mph - N/A   Scattered Clouds
9:00 AM 84.2 °F 92.3 °F 75.2 °F 74% 29.62 in 6.2 mi WSW 5.8 mph - N/A   Scattered Clouds
9:30 AM 84.2 °F 94.1 °F 77.0 °F 79% 29.62 in 6.2 mi West 5.8 mph - N/A   Scattered Clouds
10:00 AM 86.0 °F 96.9 °F 77.0 °F 74% 29.62 in 6.2 mi WSW 11.5 mph - N/A   Mostly Cloudy
10:30 AM 87.8 °F 99.7 °F 77.0 °F 70% 29.62 in 6.2 mi WNW 1.2 mph - N/A   Mostly Cloudy
11:00 AM 84.2 °F 96.1 °F 78.8 °F 84% 29.59 in 6.2 mi WNW 1.2 mph - N/A   Mostly Cloudy
11:30 AM 86.0 °F 96.9 °F 77.0 °F 74% 29.59 in 6.2 mi West 3.5 mph - N/A   Mostly Cloudy
12:00 PM 84.2 °F 94.1 °F 77.0 °F 79% 29.59 in 5.0 mi WNW 3.5 mph - N/A Rain Light Rain
12:30 PM 84.2 °F 96.1 °F 78.8 °F 84% 29.59 in 6.2 mi WNW 9.2 mph - N/A Rain Light Rain
1:00 PM 84.2 °F 92.3 °F 75.2 °F 74% 29.56 in 6.2 mi North 2.3 mph - N/A   Scattered Clouds
1:30 PM 86.0 °F 96.9 °F 77.0 °F 74% 29.56 in 6.2 mi NE 1.2 mph - N/A   Scattered Clouds
2:00 PM 89.6 °F 102.2 °F 77.0 °F 66% 29.53 in 6.2 mi West 9.2 mph - N/A   Scattered Clouds
2:30 PM 87.8 °F 99.7 °F 77.0 °F 70% 29.53 in 6.2 mi West 20.7 mph - N/A   Scattered Clouds
3:00 PM 82.4 °F 90.9 °F 77.0 °F 84% 29.53 in 6.2 mi WNW 3.5 mph - N/A   Scattered Clouds
3:30 PM 84.2 °F 92.3 °F 75.2 °F 74% 29.53 in 6.2 mi WSW 9.2 mph - N/A   Mostly Cloudy
4:00 PM 86.0 °F 95.1 °F 75.2 °F 70% 29.53 in 6.2 mi WSW 5.8 mph - N/A   Mostly Cloudy
4:30 PM 86.0 °F 95.1 °F 75.2 °F 70% 29.53 in 6.2 mi WSW 9.2 mph - N/A   Mostly Cloudy
5:00 PM 86.0 °F 95.1 °F 75.2 °F 70% 29.53 in 6.2 mi SW 11.5 mph - N/A   Scattered Clouds
5:30 PM 86.0 °F 95.1 °F 75.2 °F 70% 29.50 in 6.2 mi WSW 9.2 mph - N/A   Scattered Clouds
6:00 PM 86.0 °F 96.9 °F 77.0 °F 74% 29.53 in 6.2 mi Calm Calm - N/A   Scattered Clouds
6:30 PM 84.2 °F 94.1 °F 77.0 °F 79% 29.53 in 6.2 mi Calm Calm - N/A   Scattered Clouds
7:00 PM 84.2 °F 94.1 °F 77.0 °F 79% 29.56 in 6.2 mi Calm Calm - N/A   Scattered Clouds
7:30 PM 82.4 °F 90.9 °F 77.0 °F 84% 29.59 in 6.2 mi Calm Calm - N/A   Scattered Clouds
8:00 PM 82.4 °F 90.9 °F 77.0 °F 84% 29.59 in 6.2 mi Calm Calm - N/A   Scattered Clouds
8:30 PM 82.4 °F 90.9 °F 77.0 °F 84% 29.62 in 6.2 mi Calm Calm - N/A   Scattered Clouds
9:00 PM 82.4 °F 90.9 °F 77.0 °F 84% 29.62 in 6.2 mi Calm Calm - N/A   Scattered Clouds
9:30 PM 82.4 °F 90.9 °F 77.0 °F 84% 29.62 in 5.6 mi SSW 5.8 mph - N/A   Scattered Clouds
10:00 PM 82.4 °F 90.9 °F 77.0 °F 84% 29.62 in 5.6 mi Calm Calm - N/A   Scattered Clouds
10:30 PM 82.4 °F 90.9 °F 77.0 °F 84% 29.62 in 5.6 mi Calm Calm - N/A   Scattered Clouds
11:00 PM 82.4 °F 89.5 °F 75.2 °F 79% 29.65 in 5.6 mi Calm Calm - N/A   Scattered Clouds
11:30 PM 82.4 °F 89.5 °F 75.2 °F 79% 29.62 in 5.6 mi Calm Calm - N/A   Scattered Clouds